SCP
0 0 0 0 0 0 0 0 0 0 0 0 0 0 0 0 0 0 0 0 0 0 0 0 0 0 0 0 0 0 0 0 0 0 0 0 0 0 0 0 0 0 0 0 0 0 0 0 0 0 0 0 0 0
0 0 0 0 0 0 0 0 0 0 0 0 0 0 0 0 0 0 0 0 0 0 0 0 0 0 0 0 0 0 0 0 1 0 0 0 0 0 0 0 0 0 0 0 0 0 0 0 0 0 0 0 0 0
0 0 0 0 0 0 0 0 0 0 0 0 0 0 0 0 0 0 0 0 0 0 0 0 0 0 0 0 0 0 0 0 0 0 0 1 1 0 0 0 0 0 0 0 0 0 0 0 0 0 0 0 0 0
0 0 0 0 0 0 0 0 0 0 0 0 0 0 0 0 0 0 0 0 0 0 0 0 0 0 0 0 0 0 0 0 0 0 0 0 1 1 1 0 0 0 0 1 0 0 0 0 0 0 0 0 0 0
0 0 0 0 0 0 0 0 0 0 0 0 0 0 0 0 0 0 0 0 0 0 0 0 0 0 0 0 0 0 0 0 0 0 0 0 0 1 0 1 1 0 0 0 0 0 0 0 0 0 0 0 0 0
0 0 0 0 0 0 0 0 0 0 0 0 0 0 0 0 0 0 0 0 0 0 0 0 0 0 0 0 0 0 0 0 1 0 0 0 0 1 1 1 0 0 0 0 0 0 0 0 0 0 0 0 0 0
0 0 0 0 0 0 0 0 0 0 0 0 0 0 0 0 0 0 0 0 0 0 0 0 0 0 0 0 0 0 0 0 1 1 0 0 0 0 0 0 0 0 0 0 0 0 0 0 0 0 0 0 0 0
0 0 0 0 0 0 0 0 0 0 0 0 0 0 0 0 0 0 -0 0 0 0 0 0 0 0 0 0 0 0 0 0 0 0 0 0 0 0 0 0 0 0 0 0 0 0 0 0 0 0 0 0 0 0
0 -0 -0 0 0 0 0 0 0 0 0 0 0 0 0 0 0 0 0 0 0 0 0 0 0 0 0 0 0 0 0 0 0 0 0 0 0 -0 -0 -0 -0 0 0 -0 0 0 0 0 0 0 0 0 0 0
-0 -0 -0 0 0 0 0 0 0 0 0 0 0 0 0 0 0 0 0 0 0 0 0 0 0 0 0 0 0 0 0 0 0 0 0 0 -0 -0 -0 -0 -0 0 -0 -0 0 0 0 0 0 0 0 0 0 0
0 0 0 0 0 0 0 0 0 0 0 0 0 0 0 0 0 0 0 0 0 0 0 0 0 0 0 0 0 0 -0 0 0 -0 0 0 -0 0 -0 0 0 -0 -0 0 0 0 0 0 0 0 0 0 0 0
0 0 0 0 0 0 0 0 0 -0 0 0 0 0 0 0 0 0 0 0 0 0 0 0 -0 -0 -0 0 0 -0 -0 0 0 0 0 0 0 -0 -0 0 -0 0 0 0 0 0 0 0 0 0 0 0 0 0
0 0 0 0 0 0 0 0 -0 0 0 0 0 0 0 0 0 0 0 0 0 0 0 0 0 0 0 0 -0 -0 0 0 0 0 0 0 0 0 0 0 -0 0 0 0 0 0 0 0 0 0 0 0 0 0
0 0 0 0 0 0 0 -0 -0 0 0 0 0 0 0 0 0 0 0 -0 -0 -0 -0 -0 -0 -0 0 -0 0 0 0 0 0 0 0 0 0 0 0 0 0 0 0 0 0 0 0 0 0 0 0 0 0 0
-0 -0 -0 0 0 0 0 0 0 0 0 0 0 0 0 0 0 0 0 0 0 -0 0 -0 0 0 0 0 0 0 0 0 0 0 0 0 0 0 0 0 0 0 0 0 0 0 0 0 0 0 0 0 0 0
0 0 0 0 0 0 0 0 0 0 0 0 0 0 0 0 0 0 0 0 0 0 0 0 0 -0 0 0 0 0 0 0 0 0 0 0 0 0 0 0 0 0 0 0 0 0 0 0 0 0 0 0 0 0
0 0 -0 -0 0 0 0 0 0 0 0 0 0 0 0 0 0 0 0 0 0 -0 -0 0 0 0 0 0 0 0 0 0 0 0 0 0 0 -0 0 0 -0 -0 -0 -0 -0 0 0 0 0 0 0 0 0 0
0 -0 -0 0 0 0 0 0 0 0 0 0 0 0 -0 0 0 0 0 0 0 0 0 0 0 0 0 0 0 0 0 0 0 0 0 0 0 0 -0 -0 -0 -0 -0 -0 0 0 0 0 0 0 0 0 0 0
0 0 0 0 0 0 0 0 0 0 0 0 0 0 0 0 0 0 0 0 0 0 0 0 0 0 0 0 0 0 0 0 0 0 0 0 -0 -0 -0 -0 -0 -0 -0 0 0 0 0 0 0 0 0 0 0 0
0 0 0 0 0 0 0 0 -0 0 0 0 0 0 0 0 0 0 0 0 0 0 0 0 0 0 0 0 0 0 0 0 0 0 0 0 0 -0 -0 -0 -0 -0 -0 0 0 0 0 0 0 0 0 0 0 0
0 0 0 0 0 0 0 0 0 0 0 0 0 0 0 0 0 0 0 0 0 0 0 0 0 0 0 0 0 0 0 -0 -0 0 -0 -0 -0 -0 -0 -0 0 0 0 0 -0 0 -0 0 0 0 0 -0 -0 0
0 0 0 0 0 0 0 -0 0 0 0 0 0 0 0 0 0 0 0 0 0 0 0 0 0 0 0 0 0 0 0 0 0 -0 -0 -0 -0 -0 -0 0 0 0 0 0 0 0 -0 0 -0 -0 0 -0 0 0
0 0 0 0 0 0 0 0 0 -0 0 0 0 0 0 0 0 0 0 0 0 0 0 0 0 0 0 0 0 0 0 0 -0 -0 0 0 -0 -0 0 -0 -0 -0 0 0 0 0 0 -0 -0 0 0 0 -0 0
0 -0 0 0 0 0 0 -0 -0 0 0 0 0 0 0 0 0 0 0 0 0 0 0 0 0 -0 -0 -0 0 0 0 0 -0 0 0 0 -0 0 -0 -0 -0 -0 -0 0 -0 -0 -0 -0 0 -0 0 0 0 0
0 0 0 0 -0 0 0 0 0 0 0 0 0 0 0 0 0 0 0 0 0 0 0 0 0 0 0 0 0 0 -0 0 0 0 0 -0 0 0 0 0 0 0 0 0 -0 0 -0 -0 0 -0 -0 -0 0 0
0 0 0 0 0 0 0 0 0 0 0 0 0 0 0 0 0 0 0 0 0 0 0 0 0 0 0 0 0 -0 0 0 -0 0 -0 -0 0 0 0 0 0 0 0 -0 -0 0 -0 -0 0 0 -0 0 -0 -0
0 0 0 0 0 0 0 0 0 0 0 0 0 0 0 0 0 0 0 0 0 0 0 0 0 0 -0 0 0 -0 -0 -0 0 -0 -0 -0 -0 -0 0 0 0 -0 0 -0 -0 -0 -0 -0 -0 0 -0 -0 -0 0
0 0 0 0 0 0 0 0 0 0 0 0 0 0 0 0 0 0 0 0 0 0 0 0 0 0 0 -0 0 -0 -0 0 -0 -0 -0 -0 -0 -0 0 0 0 0 0 0 0 0 0 0 0 0 0 -0 0 0
0 0 0 0 0 0 0 0 0 0 0 0 0 0 0 0 0 0 0 0 0 0 0 -0 -0 -0 -0 -0 -0 -0 0 -0 0 0 -0 0 0 0 0 0 0 0 0 0 0 0 0 0 0 0 0 0 0 0
0 0 0 0 0 0 0 0 0 0 -0 -0 0 0 0 -0 -0 -0 -0 -0 -0 -0 0 0 -0 -0 -0 -0 -0 -0 0 0 -0 0 0 0 0 0 0 0 0 0 0 0 0 0 0 0 0 0 0 0 0 0
0 -0 0 0 -0 0 -0 -0 -0 0 0 0 0 0 0 0 0 -0 -0 -0 -0 -0 0 0 0 0 0 -0 0 0 0 0 0 0 0 0 0 0 0 0 0 0 0 0 0 0 0 0 0 -0 -0 0 0 0
0 -0 -0 0 -0 -0 -0 -0 -0 -0 0 0 0 0 -0 -0 -0 -0 -0 0 0 0 0 0 0 0 0 0 0 0 0 0 0 0 0 0 0 0 0 0 0 0 0 0 0 0 0 0 0 0 0 0 0 0
-0 -0 -0 -0 -0 -0 -0 -0 0 0 0 -0 -0 -0 -0 -0 -0 0 0 0 0 0 0 0 0 0 0 0 0 0 0 0 0 0 0 0 0 0 0 0 0 0 0 0 0 0 0 0 -0 0 0 0 0 -0
Wind_Speed_500mb
50 47 41 36 35 36 36 35 36 35 31 31 34 30 25 20 19 31 48 45 39 18 43 30 25 39 30 28 18 12 16 28 17 26 29 30 34 38 35 42 31 32 16 33 30 40 52 33 29 31 8 4 11 17
42 42 40 40 41 37 38 35 36 35 32 30 27 30 30 28 25 22 27 35 40 43 26 16 39 44 41 38 35 35 34 32 14 12 24 27 31 32 35 34 39 35 30 27 29 23 22 16 39 37 28 19 19 25
39 38 43 48 47 44 43 41 35 36 31 30 32 37 34 32 25 24 22 25 34 33 44 54 55 51 43 46 37 44 42 39 36 6 19 10 20 25 29 32 38 43 55 28 27 39 37 17 25 26 35 30 26 29
41 42 40 39 39 41 41 42 42 36 34 30 28 30 29 25 25 28 25 26 35 22 17 33 36 39 45 61 61 53 54 59 52 29 13 9 14 21 26 33 23 31 41 34 37 34 27 45 38 40 36 33 31 32
40 40 41 42 43 43 43 41 41 39 37 34 31 27 25 25 23 23 25 31 35 44 15 22 31 30 38 37 43 52 50 55 50 36 14 19 36 20 33 29 31 35 31 18 26 47 42 32 37 39 38 38 35 37
43 41 41 43 44 45 44 45 42 41 38 34 34 30 26 20 17 13 18 37 43 42 18 10 25 48 42 35 48 54 53 54 51 29 21 37 47 23 14 32 58 56 43 32 63 25 14 42 33 46 40 37 38 40
45 45 43 44 46 47 45 44 40 39 36 34 34 30 27 25 24 34 8 7 31 40 14 11 15 40 59 49 56 56 47 35 40 42 20 39 30 9 19 35 50 42 47 64 78 25 25 24 28 36 38 39 39 40
45 46 48 46 46 44 42 46 47 39 35 34 30 26 24 26 28 43 47 17 17 29 16 7 9 23 26 28 44 36 27 29 24 22 18 29 33 13 15 44 59 40 37 78 46 43 28 28 28 36 39 44 48 47
48 49 49 42 41 39 35 39 41 40 34 32 26 22 20 22 27 35 28 33 39 26 11 8 13 15 17 29 19 15 20 10 12 12 16 18 13 19 31 54 61 47 32 69 47 39 27 33 36 42 47 50 51 49
36 45 44 42 40 41 39 44 45 39 36 32 26 15 16 25 32 14 24 22 18 18 15 9 15 24 10 15 13 9 9 8 7 13 29 11 23 51 52 57 61 55 74 90 44 40 38 39 41 47 50 51 49 49
21 23 30 33 41 44 47 45 45 42 38 32 21 19 13 20 24 13 14 19 16 9 19 25 47 25 21 10 6 8 5 10 10 10 15 11 16 33 52 50 46 55 51 44 36 37 38 40 47 49 50 48 47 47
24 27 31 38 39 49 48 49 52 48 31 30 15 15 14 12 8 6 6 8 12 14 25 19 37 53 33 22 14 10 9 13 11 31 13 10 14 46 56 68 60 41 38 37 37 36 36 41 49 51 49 45 45 44
23 29 29 37 46 44 48 49 55 43 21 16 12 5 10 10 10 13 16 10 10 12 19 25 14 19 18 17 12 8 11 9 35 10 7 7 27 33 35 42 49 39 41 41 37 35 38 43 46 47 43 40 41 40
24 28 31 36 38 42 45 50 49 39 15 12 11 8 10 11 13 17 17 14 26 22 24 32 27 20 15 10 8 11 9 10 11 11 8 8 19 24 24 33 39 39 39 40 41 42 43 44 44 42 44 43 43 43
26 30 32 35 36 41 46 46 45 33 12 8 9 10 18 25 17 16 16 16 18 19 15 11 4 8 5 9 10 7 8 8 8 1 7 23 20 21 27 35 39 43 45 46 45 45 43 44 44 41 41 41 41 41
27 27 24 33 37 39 41 36 36 24 8 9 14 10 18 19 18 15 23 31 22 17 15 9 6 6 15 8 8 12 6 3 6 6 17 17 22 27 36 42 46 45 45 43 40 40 39 39 40 40 39 40 39 39
30 13 32 34 37 47 41 29 20 12 8 9 12 17 26 24 25 25 25 34 13 23 6 6 7 9 6 6 9 2 5 7 11 18 23 26 32 38 41 44 44 43 39 35 32 34 34 35 38 40 42 41 41 35
11 20 35 40 38 39 32 16 12 14 16 21 16 20 18 30 36 41 33 21 18 17 5 7 10 8 3 2 6 8 18 19 26 31 33 33 36 36 38 39 37 35 33 30 31 32 34 38 39 37 38 41 35 30
23 35 45 44 41 24 15 16 13 8 18 23 21 28 38 37 31 16 11 26 20 21 7 6 5 1 7 7 10 18 17 22 31 35 36 35 35 36 35 33 32 30 29 29 31 34 35 37 34 39 37 33 32 32
25 36 49 48 40 9 8 9 15 13 8 7 15 17 22 10 7 19 25 25 16 5 3 2 6 15 17 14 11 9 18 28 38 40 36 33 32 32 32 32 32 32 31 29 27 33 36 35 36 30 30 30 31 33
32 38 40 30 27 15 6 7 9 5 11 10 13 17 7 12 10 16 14 10 7 4 4 5 7 8 14 13 15 19 24 28 30 34 37 33 29 30 28 27 27 30 34 37 40 37 34 33 32 28 29 32 31 31
28 35 16 18 7 7 6 7 8 11 9 10 11 9 8 7 9 8 6 5 5 1 5 12 14 16 19 19 19 20 21 20 27 32 25 28 27 25 25 26 27 28 31 28 30 28 26 25 25 27 27 30 23 26
37 20 8 8 6 6 9 6 5 4 3 7 9 4 4 4 7 8 6 11 5 7 9 14 17 21 24 22 22 21 20 23 25 26 23 21 21 22 24 23 23 24 26 27 27 25 25 26 28 27 27 26 27 24
27 10 5 7 11 6 6 4 5 3 2 3 1 3 2 4 3 4 5 6 9 11 14 19 18 19 17 14 15 16 15 14 18 19 18 18 21 19 19 21 20 18 17 22 28 31 28 27 26 26 26 27 27 25
11 11 8 8 8 6 5 3 3 3 4 7 3 3 5 12 3 5 5 11 17 16 16 14 13 9 13 15 13 11 11 13 14 15 15 17 20 18 18 15 14 15 18 20 25 23 33 33 31 27 24 26 27 28
9 17 13 10 8 8 7 6 8 7 5 4 2 9 11 6 5 7 5 18 17 12 15 12 12 11 11 11 10 9 7 3 5 6 15 15 20 24 25 24 23 22 21 24 24 34 33 33 40 33 31 29 27 24
8 11 19 19 12 16 10 16 21 7 7 7 7 8 6 5 6 7 17 13 14 17 14 13 12 9 13 14 10 9 9 8 10 6 14 16 15 16 16 15 12 11 16 21 23 30 21 34 34 35 38 34 32 31
9 12 14 13 13 14 10 6 6 7 7 7 5 3 6 8 6 11 13 14 14 15 13 11 8 10 12 8 7 9 9 7 9 9 14 13 14 14 13 12 9 17 11 15 17 19 25 26 27 32 33 35 34 28
5 8 9 12 11 9 13 11 11 10 6 9 10 10 9 11 13 17 15 15 17 18 16 14 11 5 3 4 2 2 3 5 9 10 11 10 16 16 14 10 6 12 13 12 20 10 16 15 21 22 19 21 25 27
13 9 18 21 18 13 20 20 27 27 33 33 36 37 34 26 19 15 17 17 15 10 9 7 7 9 7 10 9 9 9 10 10 7 15 13 14 17 14 14 12 10 12 14 14 16 20 17 17 17 19 20 21 22
15 29 31 30 25 24 24 23 24 27 29 28 26 27 24 22 18 14 12 10 7 4 4 3 4 6 9 12 10 8 9 6 11 9 10 4 8 16 17 12 12 9 10 11 11 13 14 16 18 19 19 22 25 21
17 19 24 21 20 13 15 15 17 19 19 18 18 14 10 12 10 10 5 5 3 0 3 4 5 3 4 5 2 3 2 2 9 13 13 7 8 11 9 13 13 11 9 11 14 13 13 15 19 21 21 23 21 24
17 18 17 15 16 12 12 14 16 16 19 19 17 14 10 12 11 6 3 2 1 3 2 2 1 3 7 9 12 9 10 9 13 14 10 11 9 10 9 9 10 9 12 12 14 15 14 16 18 17 20 24 23 24
Wind_Direction_500mb
256 252 249 251 249 245 247 253 245 245 257 253 249 238 230 239 232 226 227 219 214 249 253 271 265 261 265 264 274 4 296 250 236 235 242 242 249 253 254 248 236 204 223 236 233 250 256 254 190 203 345 135 189 182
258 256 251 247 246 248 246 244 240 242 255 254 238 219 226 229 237 225 238 226 230 237 253 268 254 253 255 260 282 278 271 302 338 283 247 251 253 252 250 251 248 256 205 227 245 247 251 274 212 211 235 232 196 187
248 247 247 248 248 248 241 238 241 239 248 246 237 227 229 237 229 220 226 221 227 253 270 258 256 251 251 240 247 254 253 263 291 311 316 291 261 264 263 248 263 236 246 247 248 257 258 216 214 221 207 218 199 196
254 253 249 245 242 239 239 236 238 239 238 238 231 230 234 231 226 215 219 218 225 250 263 269 261 252 245 242 245 240 253 262 277 283 285 274 279 288 280 289 279 261 272 225 259 243 240 227 224 210 205 210 198 203
253 251 247 244 243 241 239 238 236 233 231 228 227 229 228 230 231 224 236 229 222 218 265 306 302 256 240 235 234 237 243 241 251 255 242 257 265 276 276 281 269 268 274 196 232 237 219 223 219 217 210 208 203 190
254 253 249 247 246 243 240 236 233 226 224 226 224 226 216 213 209 212 254 241 223 218 251 258 262 251 252 231 232 239 243 240 236 240 240 246 253 260 260 250 255 252 274 260 290 251 259 214 252 208 201 199 191 186
249 249 253 252 246 240 236 232 223 221 217 219 218 219 216 211 206 204 198 159 187 205 227 253 266 244 238 234 237 238 235 236 227 231 231 248 248 212 249 249 249 258 262 245 245 253 214 193 202 192 190 188 179 178
251 252 250 250 247 239 228 220 216 206 208 209 206 212 218 224 233 238 232 244 199 202 220 243 245 253 211 225 227 232 230 220 216 221 217 226 243 236 241 246 251 253 301 288 210 216 206 195 185 184 181 174 174 172
255 254 249 235 237 218 209 199 196 191 198 194 199 203 215 221 235 245 237 231 250 225 229 236 253 254 187 221 215 209 208 209 213 224 202 196 210 224 241 262 244 223 220 243 217 205 198 189 188 187 179 174 176 173
251 246 234 226 210 196 201 190 183 181 180 179 177 181 217 223 213 197 165 199 221 213 228 243 229 249 243 216 200 189 181 206 224 211 169 229 239 241 243 248 255 220 230 241 203 195 195 184 181 176 175 179 177 169
229 205 190 194 191 195 180 176 171 173 172 176 193 219 199 165 176 195 197 197 192 223 212 234 226 234 213 232 200 201 239 197 212 196 195 212 246 233 227 226 239 219 218 211 205 198 197 185 178 174 180 177 169 167
201 199 190 186 195 171 176 177 175 175 181 191 205 218 178 179 170 209 209 199 201 216 185 225 222 221 230 209 193 199 240 212 220 148 197 229 203 188 200 211 221 212 198 195 192 188 187 183 173 175 174 167 165 168
181 181 179 180 166 176 179 179 182 181 184 202 211 221 200 157 198 215 204 194 207 211 200 200 190 190 187 197 209 222 247 205 148 204 216 237 142 174 191 195 194 194 191 182 174 173 174 165 166 167 165 169 167 166
164 167 173 173 174 175 178 180 179 185 186 203 172 220 217 192 225 214 227 230 205 195 191 203 195 184 176 177 226 235 228 200 190 201 227 150 156 166 173 173 172 178 176 174 172 169 155 154 157 165 167 166 166 167
159 166 170 170 173 175 174 177 181 185 207 206 213 233 216 231 243 250 275 275 229 207 210 177 164 136 182 239 215 237 205 214 213 217 78 97 133 146 152 158 162 158 153 149 153 156 153 154 157 163 164 164 167 167
155 155 169 162 166 170 172 173 178 190 235 224 228 250 273 271 271 297 292 262 237 173 141 127 190 174 224 220 196 215 205 84 49 82 90 125 143 149 152 154 147 144 143 144 150 155 159 162 166 162 164 167 168 170
161 159 167 165 168 176 165 156 174 198 238 253 243 249 256 265 270 283 273 275 186 156 141 167 214 209 200 231 188 86 75 97 86 102 111 127 141 145 145 147 150 151 147 145 150 159 162 166 165 171 171 163 165 167
151 154 162 158 150 153 167 181 181 212 237 246 262 267 272 270 262 259 272 212 155 149 186 216 268 227 225 142 88 103 110 99 104 115 118 119 128 133 137 140 147 150 155 159 161 163 169 166 164 171 162 160 164 169
154 165 164 163 157 162 177 195 222 252 238 253 261 268 262 272 273 237 144 144 147 156 190 272 276 107 54 46 56 108 119 118 124 122 121 120 122 125 130 135 143 150 155 159 164 170 154 157 162 159 161 168 176 177
154 151 160 164 168 197 223 205 192 248 250 233 256 266 283 264 14 123 119 137 140 334 128 216 42 68 37 48 74 112 120 134 133 134 129 126 126 125 128 134 138 140 143 143 138 140 146 150 156 167 176 181 175 175
132 152 157 169 211 254 262 271 243 266 293 289 326 333 340 26 60 83 75 85 72 38 7 57 75 61 37 71 97 118 129 143 149 144 140 141 140 132 137 127 147 144 147 150 154 156 171 171 175 177 172 181 183 179
151 158 170 208 276 280 255 229 269 305 290 308 329 348 45 15 12 42 72 75 72 338 54 79 104 118 99 92 95 101 108 121 119 124 130 140 139 149 146 151 154 158 159 159 158 165 172 169 171 175 178 182 190 186
157 162 172 206 262 268 272 260 250 251 285 335 350 42 51 14 27 36 55 14 123 78 97 109 99 103 104 101 98 99 116 125 137 141 154 155 144 148 155 158 161 165 162 167 168 171 168 167 172 174 175 175 188 174
181 173 230 233 215 268 277 247 240 227 246 269 251 99 92 119 59 55 67 352 133 116 113 119 113 108 104 108 112 122 132 137 137 147 159 155 153 161 162 170 172 173 179 183 179 177 179 182 179 186 186 189 190 193
188 207 211 213 217 234 239 215 176 208 239 201 154 159 160 170 171 95 110 153 150 161 159 151 127 105 104 103 108 121 144 163 178 179 173 178 170 169 161 177 185 197 206 206 207 188 188 190 194 201 205 209 206 202
213 201 203 206 187 215 194 207 195 168 156 106 95 140 179 138 99 82 102 162 181 182 162 139 126 127 119 110 121 136 142 124 154 143 181 190 183 185 175 183 186 192 201 204 212 212 202 194 199 206 213 218 227 221
205 181 198 212 196 185 174 159 147 164 149 119 153 161 172 105 87 92 131 156 161 165 147 141 127 111 108 108 102 107 121 109 104 196 174 180 173 176 181 190 197 209 201 198 201 211 212 201 204 205 216 228 226 223
6 1 76 89 79 82 89 83 68 69 74 83 152 77 45 37 74 99 120 142 146 153 158 137 126 114 108 118 122 111 124 118 131 134 141 150 159 159 148 153 159 179 173 184 192 191 203 208 209 218 223 225 227 225
65 3 71 84 83 82 31 50 56 56 17 307 84 65 85 84 93 97 106 132 140 151 157 164 164 174 183 199 226 225 150 186 182 175 208 179 179 185 187 183 152 160 173 173 190 158 177 185 198 213 228 228 234 242
44 68 92 87 77 70 60 78 76 74 79 87 104 111 105 101 96 101 105 110 123 125 147 156 190 214 225 244 244 258 256 252 241 239 207 216 221 206 197 196 186 194 187 193 206 208 213 224 237 241 237 241 231 248
86 97 97 91 86 81 83 84 86 86 95 97 98 103 113 116 101 83 80 82 102 141 152 172 239 277 274 273 285 271 281 225 226 222 199 181 164 172 186 190 200 204 210 219 216 209 217 218 240 246 251 250 267 263
102 104 112 110 102 90 91 88 88 93 100 103 108 115 133 135 108 105 46 50 53 232 304 266 285 357 304 291 316 338 213 188 190 168 169 165 162 178 198 210 210 206 219 231 227 228 242 251 256 260 257 253 249 248
112 100 96 112 117 113 104 100 100 97 88 80 74 71 50 41 67 70 1 28 108 22 122 139 49 107 87 89 91 73 94 120 134 151 166 183 180 184 172 205 206 213 227 239 237 249 267 250 275 267 258 260 258 267
Wind_Speed_850mb
50 47 41 36 35 36 36 35 36 35 31 31 34 30 25 20 19 31 48 45 39 18 43 30 25 39 30 28 18 12 16 28 17 26 29 30 34 38 35 42 31 32 16 33 30 40 52 33 29 31 8 4 11 17
42 42 40 40 41 37 38 35 36 35 32 30 27 30 30 28 25 22 27 35 40 43 26 16 39 44 41 38 35 35 34 32 14 12 24 27 31 32 35 34 39 35 30 27 29 23 22 16 39 37 28 19 19 25
39 38 43 48 47 44 43 41 35 36 31 30 32 37 34 32 25 24 22 25 34 33 44 54 55 51 43 46 37 44 42 39 36 6 19 10 20 25 29 32 38 43 55 28 27 39 37 17 25 26 35 30 26 29
41 42 40 39 39 41 41 42 42 36 34 30 28 30 29 25 25 28 25 26 35 22 17 33 36 39 45 61 61 53 54 59 52 29 13 9 14 21 26 33 23 31 41 34 37 34 27 45 38 40 36 33 31 32
40 40 41 42 43 43 43 41 41 39 37 34 31 27 25 25 23 23 25 31 35 44 15 22 31 30 38 37 43 52 50 55 50 36 14 19 36 20 33 29 31 35 31 18 26 47 42 32 37 39 38 38 35 37
43 41 41 43 44 45 44 45 42 41 38 34 34 30 26 20 17 13 18 37 43 42 18 10 25 48 42 35 48 54 53 54 51 29 21 37 47 23 14 32 58 56 43 32 63 25 14 42 33 46 40 37 38 40
45 45 43 44 46 47 45 44 40 39 36 34 34 30 27 25 24 34 8 7 31 40 14 11 15 40 59 49 56 56 47 35 40 42 20 39 30 9 19 35 50 42 47 64 78 25 25 24 28 36 38 39 39 40
45 46 48 46 46 44 42 46 47 39 35 34 30 26 24 26 28 43 47 17 17 29 16 7 9 23 26 28 44 36 27 29 24 22 18 29 33 13 15 44 59 40 37 78 46 43 28 28 28 36 39 44 48 47
48 49 49 42 41 39 35 39 41 40 34 32 26 22 20 22 27 35 28 33 39 26 11 8 13 15 17 29 19 15 20 10 12 12 16 18 13 19 31 54 61 47 32 69 47 39 27 33 36 42 47 50 51 49
36 45 44 42 40 41 39 44 45 39 36 32 26 15 16 25 32 14 24 22 18 18 15 9 15 24 10 15 13 9 9 8 7 13 29 11 23 51 52 57 61 55 74 90 44 40 38 39 41 47 50 51 49 49
21 23 30 33 41 44 47 45 45 42 38 32 21 19 13 20 24 13 14 19 16 9 19 25 47 25 21 10 6 8 5 10 10 10 15 11 16 33 52 50 46 55 51 44 36 37 38 40 47 49 50 48 47 47
24 27 31 38 39 49 48 49 52 48 31 30 15 15 14 12 8 6 6 8 12 14 25 19 37 53 33 22 14 10 9 13 11 31 13 10 14 46 56 68 60 41 38 37 37 36 36 41 49 51 49 45 45 44
23 29 29 37 46 44 48 49 55 43 21 16 12 5 10 10 10 13 16 10 10 12 19 25 14 19 18 17 12 8 11 9 35 10 7 7 27 33 35 42 49 39 41 41 37 35 38 43 46 47 43 40 41 40
24 28 31 36 38 42 45 50 49 39 15 12 11 8 10 11 13 17 17 14 26 22 24 32 27 20 15 10 8 11 9 10 11 11 8 8 19 24 24 33 39 39 39 40 41 42 43 44 44 42 44 43 43 43
26 30 32 35 36 41 46 46 45 33 12 8 9 10 18 25 17 16 16 16 18 19 15 11 4 8 5 9 10 7 8 8 8 1 7 23 20 21 27 35 39 43 45 46 45 45 43 44 44 41 41 41 41 41
27 27 24 33 37 39 41 36 36 24 8 9 14 10 18 19 18 15 23 31 22 17 15 9 6 6 15 8 8 12 6 3 6 6 17 17 22 27 36 42 46 45 45 43 40 40 39 39 40 40 39 40 39 39
30 13 32 34 37 47 41 29 20 12 8 9 12 17 26 24 25 25 25 34 13 23 6 6 7 9 6 6 9 2 5 7 11 18 23 26 32 38 41 44 44 43 39 35 32 34 34 35 38 40 42 41 41 35
11 20 35 40 38 39 32 16 12 14 16 21 16 20 18 30 36 41 33 21 18 17 5 7 10 8 3 2 6 8 18 19 26 31 33 33 36 36 38 39 37 35 33 30 31 32 34 38 39 37 38 41 35 30
23 35 45 44 41 24 15 16 13 8 18 23 21 28 38 37 31 16 11 26 20 21 7 6 5 1 7 7 10 18 17 22 31 35 36 35 35 36 35 33 32 30 29 29 31 34 35 37 34 39 37 33 32 32
25 36 49 48 40 9 8 9 15 13 8 7 15 17 22 10 7 19 25 25 16 5 3 2 6 15 17 14 11 9 18 28 38 40 36 33 32 32 32 32 32 32 31 29 27 33 36 35 36 30 30 30 31 33
32 38 40 30 27 15 6 7 9 5 11 10 13 17 7 12 10 16 14 10 7 4 4 5 7 8 14 13 15 19 24 28 30 34 37 33 29 30 28 27 27 30 34 37 40 37 34 33 32 28 29 32 31 31
28 35 16 18 7 7 6 7 8 11 9 10 11 9 8 7 9 8 6 5 5 1 5 12 14 16 19 19 19 20 21 20 27 32 25 28 27 25 25 26 27 28 31 28 30 28 26 25 25 27 27 30 23 26
37 20 8 8 6 6 9 6 5 4 3 7 9 4 4 4 7 8 6 11 5 7 9 14 17 21 24 22 22 21 20 23 25 26 23 21 21 22 24 23 23 24 26 27 27 25 25 26 28 27 27 26 27 24
27 10 5 7 11 6 6 4 5 3 2 3 1 3 2 4 3 4 5 6 9 11 14 19 18 19 17 14 15 16 15 14 18 19 18 18 21 19 19 21 20 18 17 22 28 31 28 27 26 26 26 27 27 25
11 11 8 8 8 6 5 3 3 3 4 7 3 3 5 12 3 5 5 11 17 16 16 14 13 9 13 15 13 11 11 13 14 15 15 17 20 18 18 15 14 15 18 20 25 23 33 33 31 27 24 26 27 28
9 17 13 10 8 8 7 6 8 7 5 4 2 9 11 6 5 7 5 18 17 12 15 12 12 11 11 11 10 9 7 3 5 6 15 15 20 24 25 24 23 22 21 24 24 34 33 33 40 33 31 29 27 24
8 11 19 19 12 16 10 16 21 7 7 7 7 8 6 5 6 7 17 13 14 17 14 13 12 9 13 14 10 9 9 8 10 6 14 16 15 16 16 15 12 11 16 21 23 30 21 34 34 35 38 34 32 31
9 12 14 13 13 14 10 6 6 7 7 7 5 3 6 8 6 11 13 14 14 15 13 11 8 10 12 8 7 9 9 7 9 9 14 13 14 14 13 12 9 17 11 15 17 19 25 26 27 32 33 35 34 28
5 8 9 12 11 9 13 11 11 10 6 9 10 10 9 11 13 17 15 15 17 18 16 14 11 5 3 4 2 2 3 5 9 10 11 10 16 16 14 10 6 12 13 12 20 10 16 15 21 22 19 21 25 27
13 9 18 21 18 13 20 20 27 27 33 33 36 37 34 26 19 15 17 17 15 10 9 7 7 9 7 10 9 9 9 10 10 7 15 13 14 17 14 14 12 10 12 14 14 16 20 17 17 17 19 20 21 22
15 29 31 30 25 24 24 23 24 27 29 28 26 27 24 22 18 14 12 10 7 4 4 3 4 6 9 12 10 8 9 6 11 9 10 4 8 16 17 12 12 9 10 11 11 13 14 16 18 19 19 22 25 21
17 19 24 21 20 13 15 15 17 19 19 18 18 14 10 12 10 10 5 5 3 0 3 4 5 3 4 5 2 3 2 2 9 13 13 7 8 11 9 13 13 11 9 11 14 13 13 15 19 21 21 23 21 24
17 18 17 15 16 12 12 14 16 16 19 19 17 14 10 12 11 6 3 2 1 3 2 2 1 3 7 9 12 9 10 9 13 14 10 11 9 10 9 9 10 9 12 12 14 15 14 16 18 17 20 24 23 24
Wind_Direction_850mb
256 252 249 251 249 245 247 253 245 245 257 253 249 238 230 239 232 226 227 219 214 249 253 271 265 261 265 264 274 4 296 250 236 235 242 242 249 253 254 248 236 204 223 236 233 250 256 254 190 203 345 135 189 182
258 256 251 247 246 248 246 244 240 242 255 254 238 219 226 229 237 225 238 226 230 237 253 268 254 253 255 260 282 278 271 302 338 283 247 251 253 252 250 251 248 256 205 227 245 247 251 274 212 211 235 232 196 187
248 247 247 248 248 248 241 238 241 239 248 246 237 227 229 237 229 220 226 221 227 253 270 258 256 251 251 240 247 254 253 263 291 311 316 291 261 264 263 248 263 236 246 247 248 257 258 216 214 221 207 218 199 196
254 253 249 245 242 239 239 236 238 239 238 238 231 230 234 231 226 215 219 218 225 250 263 269 261 252 245 242 245 240 253 262 277 283 285 274 279 288 280 289 279 261 272 225 259 243 240 227 224 210 205 210 198 203
253 251 247 244 243 241 239 238 236 233 231 228 227 229 228 230 231 224 236 229 222 218 265 306 302 256 240 235 234 237 243 241 251 255 242 257 265 276 276 281 269 268 274 196 232 237 219 223 219 217 210 208 203 190
254 253 249 247 246 243 240 236 233 226 224 226 224 226 216 213 209 212 254 241 223 218 251 258 262 251 252 231 232 239 243 240 236 240 240 246 253 260 260 250 255 252 274 260 290 251 259 214 252 208 201 199 191 186
249 249 253 252 246 240 236 232 223 221 217 219 218 219 216 211 206 204 198 159 187 205 227 253 266 244 238 234 237 238 235 236 227 231 231 248 248 212 249 249 249 258 262 245 245 253 214 193 202 192 190 188 179 178
251 252 250 250 247 239 228 220 216 206 208 209 206 212 218 224 233 238 232 244 199 202 220 243 245 253 211 225 227 232 230 220 216 221 217 226 243 236 241 246 251 253 301 288 210 216 206 195 185 184 181 174 174 172
255 254 249 235 237 218 209 199 196 191 198 194 199 203 215 221 235 245 237 231 250 225 229 236 253 254 187 221 215 209 208 209 213 224 202 196 210 224 241 262 244 223 220 243 217 205 198 189 188 187 179 174 176 173
251 246 234 226 210 196 201 190 183 181 180 179 177 181 217 223 213 197 165 199 221 213 228 243 229 249 243 216 200 189 181 206 224 211 169 229 239 241 243 248 255 220 230 241 203 195 195 184 181 176 175 179 177 169
229 205 190 194 191 195 180 176 171 173 172 176 193 219 199 165 176 195 197 197 192 223 212 234 226 234 213 232 200 201 239 197 212 196 195 212 246 233 227 226 239 219 218 211 205 198 197 185 178 174 180 177 169 167
201 199 190 186 195 171 176 177 175 175 181 191 205 218 178 179 170 209 209 199 201 216 185 225 222 221 230 209 193 199 240 212 220 148 197 229 203 188 200 211 221 212 198 195 192 188 187 183 173 175 174 167 165 168
181 181 179 180 166 176 179 179 182 181 184 202 211 221 200 157 198 215 204 194 207 211 200 200 190 190 187 197 209 222 247 205 148 204 216 237 142 174 191 195 194 194 191 182 174 173 174 165 166 167 165 169 167 166
164 167 173 173 174 175 178 180 179 185 186 203 172 220 217 192 225 214 227 230 205 195 191 203 195 184 176 177 226 235 228 200 190 201 227 150 156 166 173 173 172 178 176 174 172 169 155 154 157 165 167 166 166 167
159 166 170 170 173 175 174 177 181 185 207 206 213 233 216 231 243 250 275 275 229 207 210 177 164 136 182 239 215 237 205 214 213 217 78 97 133 146 152 158 162 158 153 149 153 156 153 154 157 163 164 164 167 167
155 155 169 162 166 170 172 173 178 190 235 224 228 250 273 271 271 297 292 262 237 173 141 127 190 174 224 220 196 215 205 84 49 82 90 125 143 149 152 154 147 144 143 144 150 155 159 162 166 162 164 167 168 170
161 159 167 165 168 176 165 156 174 198 238 253 243 249 256 265 270 283 273 275 186 156 141 167 214 209 200 231 188 86 75 97 86 102 111 127 141 145 145 147 150 151 147 145 150 159 162 166 165 171 171 163 165 167
151 154 162 158 150 153 167 181 181 212 237 246 262 267 272 270 262 259 272 212 155 149 186 216 268 227 225 142 88 103 110 99 104 115 118 119 128 133 137 140 147 150 155 159 161 163 169 166 164 171 162 160 164 169
154 165 164 163 157 162 177 195 222 252 238 253 261 268 262 272 273 237 144 144 147 156 190 272 276 107 54 46 56 108 119 118 124 122 121 120 122 125 130 135 143 150 155 159 164 170 154 157 162 159 161 168 176 177
154 151 160 164 168 197 223 205 192 248 250 233 256 266 283 264 14 123 119 137 140 334 128 216 42 68 37 48 74 112 120 134 133 134 129 126 126 125 128 134 138 140 143 143 138 140 146 150 156 167 176 181 175 175
132 152 157 169 211 254 262 271 243 266 293 289 326 333 340 26 60 83 75 85 72 38 7 57 75 61 37 71 97 118 129 143 149 144 140 141 140 132 137 127 147 144 147 150 154 156 171 171 175 177 172 181 183 179
151 158 170 208 276 280 255 229 269 305 290 308 329 348 45 15 12 42 72 75 72 338 54 79 104 118 99 92 95 101 108 121 119 124 130 140 139 149 146 151 154 158 159 159 158 165 172 169 171 175 178 182 190 186
157 162 172 206 262 268 272 260 250 251 285 335 350 42 51 14 27 36 55 14 123 78 97 109 99 103 104 101 98 99 116 125 137 141 154 155 144 148 155 158 161 165 162 167 168 171 168 167 172 174 175 175 188 174
181 173 230 233 215 268 277 247 240 227 246 269 251 99 92 119 59 55 67 352 133 116 113 119 113 108 104 108 112 122 132 137 137 147 159 155 153 161 162 170 172 173 179 183 179 177 179 182 179 186 186 189 190 193
188 207 211 213 217 234 239 215 176 208 239 201 154 159 160 170 171 95 110 153 150 161 159 151 127 105 104 103 108 121 144 163 178 179 173 178 170 169 161 177 185 197 206 206 207 188 188 190 194 201 205 209 206 202
213 201 203 206 187 215 194 207 195 168 156 106 95 140 179 138 99 82 102 162 181 182 162 139 126 127 119 110 121 136 142 124 154 143 181 190 183 185 175 183 186 192 201 204 212 212 202 194 199 206 213 218 227 221
205 181 198 212 196 185 174 159 147 164 149 119 153 161 172 105 87 92 131 156 161 165 147 141 127 111 108 108 102 107 121 109 104 196 174 180 173 176 181 190 197 209 201 198 201 211 212 201 204 205 216 228 226 223
6 1 76 89 79 82 89 83 68 69 74 83 152 77 45 37 74 99 120 142 146 153 158 137 126 114 108 118 122 111 124 118 131 134 141 150 159 159 148 153 159 179 173 184 192 191 203 208 209 218 223 225 227 225
65 3 71 84 83 82 31 50 56 56 17 307 84 65 85 84 93 97 106 132 140 151 157 164 164 174 183 199 226 225 150 186 182 175 208 179 179 185 187 183 152 160 173 173 190 158 177 185 198 213 228 228 234 242
44 68 92 87 77 70 60 78 76 74 79 87 104 111 105 101 96 101 105 110 123 125 147 156 190 214 225 244 244 258 256 252 241 239 207 216 221 206 197 196 186 194 187 193 206 208 213 224 237 241 237 241 231 248
86 97 97 91 86 81 83 84 86 86 95 97 98 103 113 116 101 83 80 82 102 141 152 172 239 277 274 273 285 271 281 225 226 222 199 181 164 172 186 190 200 204 210 219 216 209 217 218 240 246 251 250 267 263
102 104 112 110 102 90 91 88 88 93 100 103 108 115 133 135 108 105 46 50 53 232 304 266 285 357 304 291 316 338 213 188 190 168 169 165 162 178 198 210 210 206 219 231 227 228 242 251 256 260 257 253 249 248
112 100 96 112 117 113 104 100 100 97 88 80 74 71 50 41 67 70 1 28 108 22 122 139 49 107 87 89 91 73 94 120 134 151 166 183 180 184 172 205 206 213 227 239 237 249 267 250 275 267 258 260 258 267